Terug naar catalogus

USA 453

ActiefMilitairVLEO
NORAD 62352·PAYLOAD·🇺🇸 United States

Gelanceerd Dec 17, 2024 vanaf Vandenberg Space Force Base

Loading…

Volgende Passages (komende 24 uur)

TLE

VerouderdSource: Mike McCants

Epoch: Aug 15, 2026, 20:39 UTC

1 62352U 24243N   26227.86103591 0.00000000  00000-0  00000-0 0    08
2 62352  70.0200 132.1594 0004000  46.1502 313.8498 14.96713456    08

Volg USA 453 in realtime met AllMySat

Download on the App Store